Weather History for K3T5 - January, 2013

Change the Weather History Date:

Saturday, January 12, 2013

  Actual Average (KAUS) Record (KAUS)
Temperature  
Mean Temperature 64 °F 49 °F  
Max Temperature 77 °F 62 °F 80 °F (2000)
Min Temperature 50 °F 36 °F 12 °F (1962)
Degree Days  
Heating Degree Days 1 16  
Month to date heating degree days 192  
Since 1 July heating degree days 939  
Cooling Degree Days 0 0  
Month to date cooling degree days 0  
Year to date cooling degree days 0  
Growing Degree Days 14 (Base 50)    
Moisture  
Dew Point 64 °F    
Average Humidity 78    
Maximum Humidity 94    
Minimum Humidity 65    
Precipitation  
Precipitation 0.00 in 0.07 in 1.01 in (1958)
Month to date precipitation 0.89  
Year to date precipitation 0.89  
Snow  
Snow 0.00 in - - ()
Month to date snowfall  
Since 1 July snowfall  
Snow Depth -    
Sea Level Pressure  
Sea Level Pressure 29.76 in    
Wind  
Wind Speed 10 mph (South)    
Max Wind Speed 25 mph    
Max Gust Speed 34 mph    
Visibility 7 miles    
Events Rain    
T = Trace of Precipitation, MM = Missing Value Source: NWS Daily Summary

Daily Weather History Graph

Daily Weather History Graph

Search for Another Location

Airport or City:

Trip Planner

Search our weather history database for the weather conditions in past years. The results will help you decide how hot, cold, wet, or windy it might be!

Date:

Astronomy

Jan. 12, 2013 Rise Set
Actual Time 7:24 AM CST 5:48 PM CST
Civil Twilight 6:58 AM CST 6:14 PM CST
Nautical Twilight 6:29 AM CST 6:43 PM CST
Astronomical Twilight 6:00 AM CST 7:12 PM CST
Moon 7:51 AM CST (1/12) 7:09 PM CST (1/12)
Length of Visible Light 11h 15m
Length of Day
10h 23m
New Moon, 1% of the Moon is Illuminated
Jan 12
New Moon
Jan 18
First Quarter
Jan 26
Full
Feb 3
Last Quarter
Feb 10
New

Hourly Weather History & Observations

Time (CST) Temp. Dew Point Humidity Pressure Visibility Wind Dir Wind Speed Gust Speed Precip Events Conditions
12:15 AM 69.8 °F 68.0 °F 94% 29.83 in 7.0 mi SSE 8.1 mph - N/A   Overcast
12:35 AM 69.8 °F 68.0 °F 94% 29.83 in 5.0 mi South 10.4 mph - N/A   Overcast
12:55 AM 71.6 °F 68.0 °F 88% 29.82 in 7.0 mi SSE 11.5 mph - N/A   Overcast
1:35 AM 71.6 °F 68.0 °F 88% 29.82 in 7.0 mi South 11.5 mph 17.3 mph N/A   Overcast
1:55 AM 71.6 °F 68.0 °F 88% 29.82 in 10.0 mi South 11.5 mph - N/A   Overcast
2:15 AM 73.4 °F 68.0 °F 83% 29.82 in 10.0 mi South 9.2 mph - N/A   Overcast
2:35 AM 73.4 °F 68.0 °F 83% 29.83 in 7.0 mi South 8.1 mph - N/A   Overcast
2:55 AM 73.4 °F 68.0 °F 83% 29.83 in 7.0 mi South 8.1 mph - N/A Rain Rain
3:15 AM 73.4 °F 68.0 °F 83% 29.82 in 7.0 mi South 6.9 mph - N/A   Overcast
3:35 AM 73.4 °F 68.0 °F 83% 29.81 in 7.0 mi South 9.2 mph - N/A   Mostly Cloudy
3:55 AM 73.4 °F 68.0 °F 83% 29.79 in 5.0 mi South 9.2 mph - N/A   Drizzle
4:15 AM 73.4 °F 68.0 °F 83% 29.79 in 7.0 mi South 8.1 mph - N/A   Overcast
4:35 AM 73.4 °F 68.0 °F 83% 29.77 in 7.0 mi South 12.7 mph 19.6 mph N/A   Overcast
4:55 AM 73.4 °F 68.0 °F 83% 29.78 in 7.0 mi South 10.4 mph 16.1 mph N/A   Overcast
5:15 AM 73.4 °F 66.2 °F 78% 29.77 in 7.0 mi South 9.2 mph 16.1 mph N/A   Overcast
5:35 AM 73.4 °F 66.2 °F 78% 29.77 in 5.0 mi South 8.1 mph - N/A   Drizzle
5:55 AM 73.4 °F 68.0 °F 83% 29.78 in 7.0 mi South 8.1 mph - N/A   Mostly Cloudy
6:15 AM 73.4 °F 66.2 °F 78% 29.78 in 7.0 mi South 8.1 mph - N/A   Mostly Cloudy
6:35 AM 73.4 °F 66.2 °F 78% 29.78 in 7.0 mi South 9.2 mph - N/A   Mostly Cloudy
6:55 AM 73.4 °F 66.2 °F 78% 29.78 in 7.0 mi South 6.9 mph - N/A   Light Drizzle
7:15 AM 73.4 °F 68.0 °F 83% 29.79 in 7.0 mi South 6.9 mph - N/A   Mostly Cloudy
7:35 AM 73.4 °F 66.2 °F 78% 29.79 in 7.0 mi SSE 6.9 mph - N/A   Mostly Cloudy
7:55 AM 73.4 °F 66.2 °F 78% 29.79 in 5.0 mi SSE 9.2 mph - N/A   Haze
8:15 AM 73.4 °F 66.2 °F 78% 29.78 in 7.0 mi South 10.4 mph 17.3 mph N/A   Mostly Cloudy
8:35 AM 73.4 °F 66.2 °F 78% 29.78 in 7.0 mi South 13.8 mph 17.3 mph N/A   Mostly Cloudy
8:55 AM 73.4 °F 66.2 °F 78% 29.78 in 7.0 mi South 15.0 mph 19.6 mph N/A   Mostly Cloudy
9:15 AM 73.4 °F 64.4 °F 73% 29.79 in 7.0 mi South 13.8 mph 21.9 mph N/A   Mostly Cloudy
9:35 AM 73.4 °F 64.4 °F 73% 29.78 in 7.0 mi SSE 13.8 mph 20.7 mph N/A   Scattered Clouds
9:55 AM 73.4 °F 66.2 °F 78% 29.78 in 7.0 mi SSE 15.0 mph 19.6 mph N/A   Mostly Cloudy
10:15 AM 73.4 °F 66.2 °F 78% 29.78 in 7.0 mi SSE 10.4 mph 19.6 mph N/A   Mostly Cloudy
10:35 AM 73.4 °F 64.4 °F 73% 29.79 in 7.0 mi South 10.4 mph 19.6 mph N/A   Mostly Cloudy
11:15 AM 73.4 °F 64.4 °F 73% 29.78 in 7.0 mi South 11.5 mph 19.6 mph N/A   Mostly Cloudy
11:35 AM 73.4 °F 64.4 °F 73% 29.75 in 7.0 mi South 15.0 mph 21.9 mph N/A Rain Light Rain
11:55 AM 75.2 °F 64.4 °F 69% 29.75 in 7.0 mi South 13.8 mph 25.3 mph N/A   Scattered Clouds
12:35 PM 75.2 °F 64.4 °F 69% 29.70 in 7.0 mi SSE 17.3 mph 26.5 mph N/A   Scattered Clouds
12:55 PM 75.2 °F 64.4 °F 69% 29.70 in 7.0 mi South 15.0 mph 25.3 mph N/A   Scattered Clouds
1:15 PM 75.2 °F 64.4 °F 69% 29.70 in 7.0 mi South 18.4 mph 27.6 mph N/A   Scattered Clouds
1:35 PM 75.2 °F 64.4 °F 69% 29.70 in 7.0 mi South 12.7 mph 19.6 mph N/A   Mostly Cloudy
1:55 PM 77.0 °F 64.4 °F 65% 29.68 in 7.0 mi South 16.1 mph 24.2 mph N/A   Scattered Clouds
2:15 PM 77.0 °F 64.4 °F 65% 29.68 in 7.0 mi South 15.0 mph 20.7 mph N/A   Scattered Clouds
2:35 PM 77.0 °F 64.4 °F 65% 29.68 in 7.0 mi SSW 15.0 mph 18.4 mph N/A   Scattered Clouds
2:55 PM 75.2 °F 64.4 °F 69% 29.68 in 7.0 mi South 10.4 mph 17.3 mph N/A   Mostly Cloudy
3:15 PM 75.2 °F 64.4 °F 69% 29.68 in 7.0 mi South 8.1 mph - N/A   Mostly Cloudy
3:35 PM 77.0 °F 64.4 °F 65% 29.69 in 10.0 mi South 8.1 mph - N/A   Mostly Cloudy
3:55 PM 77.0 °F 64.4 °F 65% 29.69 in 7.0 mi South 10.4 mph - N/A   Mostly Cloudy
4:15 PM 75.2 °F 66.2 °F 73% 29.67 in 7.0 mi SSE 8.1 mph - N/A   Scattered Clouds
4:35 PM 75.2 °F 66.2 °F 73% 29.67 in 7.0 mi South 8.1 mph - N/A   Clear
4:55 PM 75.2 °F 66.2 °F 73% 29.68 in 7.0 mi South 6.9 mph - N/A   Clear
5:15 PM 73.4 °F 68.0 °F 83% 29.68 in 7.0 mi South 9.2 mph - N/A   Scattered Clouds
5:35 PM 73.4 °F 68.0 °F 83% 29.68 in 5.0 mi South 9.2 mph - N/A   Haze
5:55 PM 73.4 °F 68.0 °F 83% 29.68 in 7.0 mi SSE 8.1 mph - N/A   Overcast
6:15 PM 73.4 °F 68.0 °F 83% 29.68 in 7.0 mi South 9.2 mph - N/A   Overcast
6:35 PM 73.4 °F 68.0 °F 83% 29.68 in 7.0 mi South 8.1 mph - N/A   Overcast
6:55 PM 73.4 °F 68.0 °F 83% 29.70 in 7.0 mi South 6.9 mph - N/A   Overcast
7:15 PM 73.4 °F 68.0 °F 83% 29.70 in 5.0 mi SSW 5.8 mph - N/A   Haze
7:35 PM 73.4 °F 68.0 °F 83% 29.71 in 5.0 mi South 3.5 mph - N/A   Drizzle
7:55 PM 73.4 °F 68.0 °F 83% 29.71 in 5.0 mi South 4.6 mph - N/A   Haze
8:15 PM 73.4 °F 68.0 °F 83% 29.71 in 3.0 mi Calm Calm - N/A Rain Heavy Rain
8:35 PM 73.4 °F 68.0 °F 83% 29.72 in 3.0 mi Calm Calm - N/A   Haze
8:55 PM 73.4 °F 68.0 °F 83% 29.73 in 3.0 mi Calm Calm - N/A   Haze
9:15 PM 59.0 °F 50.0 °F 72% 29.77 in 7.0 mi NNW 25.3 mph 34.5 mph N/A Rain Rain
9:35 PM 55.4 °F 50.0 °F 82% 29.79 in 10.0 mi NNW 18.4 mph 25.3 mph N/A Rain Light Rain
9:55 PM 55.4 °F 46.4 °F 72% 29.80 in 10.0 mi North 19.6 mph 31.1 mph N/A   Overcast
10:15 PM 53.6 °F 46.4 °F 77% 29.80 in 10.0 mi North 15.0 mph 20.7 mph N/A   Overcast
10:35 PM 53.6 °F 44.6 °F 72% 29.80 in 10.0 mi North 15.0 mph 21.9 mph N/A   Overcast
10:55 PM 51.8 °F 44.6 °F 76% 29.81 in 10.0 mi North 16.1 mph 24.2 mph N/A   Mostly Cloudy
11:15 PM 51.8 °F 44.6 °F 76% 29.81 in 10.0 mi North 12.7 mph 21.9 mph N/A   Mostly Cloudy
11:35 PM 51.8 °F 42.8 °F 71% 29.83 in 10.0 mi North 15.0 mph 20.7 mph N/A   Overcast
11:55 PM 50.0 °F 41.0 °F 71% 29.83 in 10.0 mi North 17.3 mph 25.3 mph N/A   Overcast